EWG5MD EDDL-EDDC

Flight info

Callsign EWG5MD
Flight time 0h 49m
Altitude 23000
Route NUDGO5Z NUDGO Z858 BERDI Z21 DRN
Aircraft A20N/M-SDE2E3FGHIJ1RWXY/LB1

Departure

Time 2026-05-08 08:56
Airport Düsseldorf Airport (EDDL)

Arrival

Time 2026-05-08 09:46
Airport Dresden Airport (EDDC)
Time Latitude Longitude Altitude Speed Heading
2026-05-08 08:34 51.28150 6.76744 136 ft 0 kts 278°
2026-05-08 08:48 51.28149 6.76760 137 ft 2 kts 276°
2026-05-08 08:48 51.28147 6.76784 137 ft 2 kts 278°
2026-05-08 08:48 51.28145 6.76807 137 ft 2 kts 277°
2026-05-08 08:48 51.28144 6.76824 137 ft 0 kts 276°
2026-05-08 08:49 51.28142 6.76831 137 ft 0 kts 331°
2026-05-08 08:49 51.28137 6.76834 137 ft 1 kts 24°
2026-05-08 08:49 51.28125 6.76822 137 ft 2 kts 18°
2026-05-08 08:49 51.28117 6.76819 137 ft 1 kts 17°
2026-05-08 08:50 51.28116 6.76819 137 ft 0 kts 18°
2026-05-08 08:52 51.28117 6.76819 136 ft 0 kts 18°
2026-05-08 08:52 51.28158 6.76833 137 ft 9 kts
2026-05-08 08:52 51.28225 6.76847 137 ft 10 kts
2026-05-08 08:52 51.28296 6.76815 137 ft 12 kts 324°
2026-05-08 08:53 51.28368 6.76728 136 ft 13 kts 322°
2026-05-08 08:53 51.28406 6.76611 137 ft 13 kts 244°
2026-05-08 08:53 51.28350 6.76489 137 ft 13 kts 232°
2026-05-08 08:53 51.28291 6.76362 137 ft 14 kts 232°
2026-05-08 08:54 51.28228 6.76231 136 ft 15 kts 232°
2026-05-08 08:54 51.28162 6.76094 136 ft 15 kts 233°
2026-05-08 08:54 51.28095 6.75953 136 ft 16 kts 232°
2026-05-08 08:54 51.28026 6.75808 136 ft 16 kts 233°
2026-05-08 08:55 51.27955 6.75662 137 ft 16 kts 235°
2026-05-08 08:55 51.27974 6.75533 136 ft 6 kts 333°
2026-05-08 08:55 51.28013 6.75504 137 ft 7 kts 341°
2026-05-08 08:55 51.28091 6.75507 137 ft 14 kts 22°
2026-05-08 08:56 51.28165 6.75630 137 ft 21 kts 53°
2026-05-08 08:56 51.28423 6.76169 137 ft 97 kts 53°
2026-05-08 08:56 51.28964 6.77315 143 ft 157 kts 55°
2026-05-08 08:56 51.29601 6.78712 784 ft 154 kts 56°
2026-05-08 08:57 51.30227 6.80093 1484 ft 156 kts 54°
2026-05-08 08:57 51.30889 6.81462 2138 ft 160 kts 53°
2026-05-08 08:57 51.31598 6.82926 2580 ft 175 kts 53°
2026-05-08 08:57 51.32376 6.84540 3026 ft 192 kts 53°
2026-05-08 08:58 51.33236 6.86339 3412 ft 216 kts 53°
2026-05-08 08:58 51.34155 6.88353 3935 ft 234 kts 54°
2026-05-08 08:58 51.35038 6.90638 4459 ft 252 kts 69°
2026-05-08 08:58 51.35282 6.93466 5162 ft 264 kts 95°
2026-05-08 08:59 51.35003 6.96349 6110 ft 266 kts 99°
2026-05-08 08:59 51.34687 6.99260 7011 ft 269 kts 99°
2026-05-08 08:59 51.34371 7.02227 7869 ft 275 kts 100°
2026-05-08 08:59 51.34056 7.05250 8704 ft 280 kts 100°
2026-05-08 09:00 51.33738 7.08336 9549 ft 285 kts 100°
2026-05-08 09:00 51.33418 7.11465 10394 ft 289 kts 100°
2026-05-08 09:00 51.33089 7.14685 10989 ft 302 kts 100°
2026-05-08 09:00 51.32754 7.18108 11426 ft 321 kts 98°
2026-05-08 09:01 51.32476 7.21737 11917 ft 336 kts 97°
2026-05-08 09:01 51.32200 7.25477 12667 ft 342 kts 97°
2026-05-08 09:01 51.31921 7.29250 13456 ft 345 kts 97°
2026-05-08 09:01 51.31635 7.33083 14218 ft 350 kts 97°
2026-05-08 09:02 51.31271 7.36952 14945 ft 354 kts 102°
2026-05-08 09:02 51.30618 7.40758 15656 ft 359 kts 109°
2026-05-08 09:02 51.29685 7.44467 16352 ft 363 kts 114°
2026-05-08 09:02 51.28653 7.48155 17056 ft 367 kts 115°
2026-05-08 09:03 51.27589 7.51895 17728 ft 371 kts 115°
2026-05-08 09:03 51.26521 7.55663 18382 ft 376 kts 115°
2026-05-08 09:03 51.25444 7.59481 19029 ft 380 kts 115°
2026-05-08 09:03 51.24357 7.63349 19684 ft 383 kts 115°
2026-05-08 09:04 51.23293 7.67261 20362 ft 386 kts 110°
2026-05-08 09:04 51.22812 7.71499 20962 ft 391 kts 90°
2026-05-08 09:04 51.23248 7.75792 21560 ft 395 kts 71°
2026-05-08 09:04 51.24233 7.79878 22177 ft 398 kts 68°
2026-05-08 09:05 51.25275 7.83976 22730 ft 402 kts 68°
2026-05-08 09:05 51.26318 7.88121 23078 ft 405 kts 68°
2026-05-08 09:05 51.27354 7.92306 23106 ft 405 kts 68°
2026-05-08 09:05 51.28371 7.96473 23115 ft 404 kts 68°
2026-05-08 09:06 51.29386 8.00664 23110 ft 404 kts 68°
2026-05-08 09:06 51.30401 8.04880 23109 ft 404 kts 68°
2026-05-08 09:06 51.31407 8.09070 23113 ft 404 kts 68°
2026-05-08 09:06 51.32410 8.13261 23110 ft 404 kts 68°
2026-05-08 09:07 51.33415 8.17467 23111 ft 404 kts 68°
2026-05-08 09:07 51.34417 8.21658 23106 ft 404 kts 68°
2026-05-08 09:07 51.35516 8.25768 23108 ft 403 kts 64°
2026-05-08 09:07 51.36759 8.29783 23106 ft 403 kts 62°
2026-05-08 09:08 51.38044 8.33773 23100 ft 402 kts 62°
2026-05-08 09:08 51.39334 8.37756 23107 ft 402 kts 62°
2026-05-08 09:08 51.40512 8.41821 23099 ft 403 kts 70°
2026-05-08 09:08 51.41206 8.46162 23103 ft 403 kts 81°
2026-05-08 09:09 51.41384 8.50639 23104 ft 403 kts 90°
2026-05-08 09:09 51.41329 8.55128 23105 ft 403 kts 91°
2026-05-08 09:09 51.41240 8.59620 23103 ft 403 kts 91°
2026-05-08 09:09 51.41161 8.64106 23104 ft 404 kts 91°
2026-05-08 09:10 51.41096 8.68616 23107 ft 404 kts 91°
2026-05-08 09:10 51.41032 8.73131 23108 ft 404 kts 92°
2026-05-08 09:10 51.40844 8.77626 23110 ft 403 kts 96°
2026-05-08 09:10 51.40513 8.82093 23111 ft 403 kts 98°
2026-05-08 09:11 51.40153 8.86553 23112 ft 403 kts 98°
2026-05-08 09:11 51.39790 8.91012 23114 ft 403 kts 98°
2026-05-08 09:11 51.39430 8.95480 23120 ft 403 kts 98°
2026-05-08 09:11 51.39073 8.99931 23119 ft 403 kts 98°
2026-05-08 09:12 51.38765 9.04414 23119 ft 403 kts 95°
2026-05-08 09:12 51.38632 9.08883 23119 ft 403 kts 91°
2026-05-08 09:12 51.38681 9.13384 23122 ft 403 kts 88°
2026-05-08 09:12 51.38812 9.17876 23125 ft 403 kts 87°
2026-05-08 09:13 51.38952 9.22362 23124 ft 403 kts 87°
2026-05-08 09:13 51.39088 9.26836 23122 ft 403 kts 87°
2026-05-08 09:13 51.39217 9.31202 23126 ft 403 kts 87°
2026-05-08 09:13 51.39346 9.35685 23129 ft 403 kts 87°
2026-05-08 09:14 51.39472 9.40184 23132 ft 403 kts 87°
2026-05-08 09:14 51.39596 9.44665 23132 ft 403 kts 87°
2026-05-08 09:14 51.39718 9.49153 23134 ft 403 kts 87°
2026-05-08 09:14 51.39837 9.53622 23130 ft 403 kts 87°
2026-05-08 09:15 51.39955 9.58122 23132 ft 402 kts 87°
2026-05-08 09:15 51.40069 9.62587 23133 ft 402 kts 87°
2026-05-08 09:15 51.40183 9.67084 23136 ft 402 kts 88°
2026-05-08 09:15 51.40295 9.71563 23133 ft 402 kts 88°
2026-05-08 09:16 51.40409 9.76068 23134 ft 402 kts 88°
2026-05-08 09:16 51.40521 9.80556 23131 ft 402 kts 88°
2026-05-08 09:16 51.40630 9.85043 23132 ft 403 kts 88°
2026-05-08 09:16 51.40738 9.89530 23136 ft 403 kts 88°
2026-05-08 09:17 51.40844 9.94028 23139 ft 403 kts 88°
2026-05-08 09:17 51.40947 9.98510 23139 ft 403 kts 88°
2026-05-08 09:17 51.41050 10.03013 23145 ft 403 kts 88°
2026-05-08 09:17 51.41150 10.07518 23146 ft 404 kts 88°
2026-05-08 09:18 51.41248 10.12027 23146 ft 403 kts 88°
2026-05-08 09:18 51.41345 10.16518 23147 ft 403 kts 88°
2026-05-08 09:18 51.41439 10.20989 23147 ft 403 kts 88°
2026-05-08 09:18 51.41531 10.25461 23147 ft 402 kts 88°
2026-05-08 09:19 51.41622 10.29940 23145 ft 402 kts 88°
2026-05-08 09:19 51.41710 10.34406 23146 ft 402 kts 88°
2026-05-08 09:19 51.41795 10.38873 23147 ft 402 kts 88°
2026-05-08 09:19 51.41880 10.43340 23145 ft 402 kts 88°
2026-05-08 09:20 51.41944 10.47831 23144 ft 402 kts 90°
2026-05-08 09:20 51.41847 10.52315 23142 ft 402 kts 94°
2026-05-08 09:20 51.41554 10.56778 23143 ft 403 kts 98°
2026-05-08 09:20 51.41133 10.61217 23144 ft 403 kts 98°
2026-05-08 09:21 51.40690 10.65663 23145 ft 403 kts 99°
2026-05-08 09:21 51.40246 10.70119 23147 ft 403 kts 99°
2026-05-08 09:22 51.38101 10.96745 23149 ft 402 kts 89°
2026-05-08 09:23 51.38222 11.01233 23151 ft 402 kts 86°
2026-05-08 09:23 51.38394 11.05706 23149 ft 402 kts 86°
2026-05-08 09:23 51.38570 11.10155 23148 ft 402 kts 86°
2026-05-08 09:23 51.38742 11.14626 23150 ft 402 kts 86°
2026-05-08 09:24 51.38908 11.19100 23150 ft 403 kts 86°
2026-05-08 09:24 51.39071 11.23582 23150 ft 403 kts 86°
2026-05-08 09:24 51.39230 11.28050 23149 ft 403 kts 86°
2026-05-08 09:24 51.39386 11.32528 23145 ft 403 kts 86°
2026-05-08 09:25 51.39541 11.37016 23147 ft 403 kts 86°
2026-05-08 09:25 51.39693 11.41486 23146 ft 403 kts 86°
2026-05-08 09:25 51.39844 11.45959 23151 ft 403 kts 86°
2026-05-08 09:25 51.39996 11.50433 23148 ft 403 kts 86°
2026-05-08 09:26 51.40146 11.54923 23150 ft 403 kts 86°
2026-05-08 09:26 51.40293 11.59382 23154 ft 403 kts 86°
2026-05-08 09:26 51.40437 11.63851 23156 ft 403 kts 86°
2026-05-08 09:26 51.40580 11.68324 23153 ft 403 kts 87°
2026-05-08 09:27 51.40721 11.72807 23149 ft 403 kts 87°
2026-05-08 09:27 51.40861 11.77282 23153 ft 403 kts 87°
2026-05-08 09:27 51.40999 11.81775 23155 ft 403 kts 87°
2026-05-08 09:27 51.41134 11.86253 23158 ft 403 kts 87°
2026-05-08 09:28 51.41268 11.90749 23157 ft 403 kts 87°
2026-05-08 09:28 51.41400 11.95235 23160 ft 403 kts 87°
2026-05-08 09:28 51.41533 11.99720 23156 ft 403 kts 87°
2026-05-08 09:28 51.41664 12.04179 23023 ft 398 kts 87°
2026-05-08 09:29 51.41792 12.08600 22527 ft 396 kts 87°
2026-05-08 09:29 51.41917 12.12997 21960 ft 395 kts 87°
2026-05-08 09:29 51.42039 12.17378 21447 ft 392 kts 87°
2026-05-08 09:29 51.42158 12.21718 20963 ft 389 kts 87°
2026-05-08 09:30 51.42274 12.26021 20475 ft 386 kts 87°
2026-05-08 09:30 51.42387 12.30292 19991 ft 383 kts 87°
2026-05-08 09:30 51.42498 12.34526 19514 ft 380 kts 87°
2026-05-08 09:30 51.42606 12.38726 19038 ft 377 kts 87°
2026-05-08 09:31 51.42712 12.42891 18561 ft 374 kts 87°
2026-05-08 09:31 51.42816 12.47046 18089 ft 371 kts 87°
2026-05-08 09:31 51.42900 12.51145 17622 ft 368 kts 91°
2026-05-08 09:31 51.42525 12.55168 17130 ft 366 kts 107°
2026-05-08 09:32 51.41521 12.58857 16640 ft 362 kts 120°
2026-05-08 09:32 51.40210 12.62278 16173 ft 358 kts 122°
2026-05-08 09:32 51.38877 12.65621 15689 ft 356 kts 123°
2026-05-08 09:32 51.37558 12.68933 15211 ft 353 kts 123°
2026-05-08 09:33 51.36255 12.72233 14750 ft 350 kts 123°
2026-05-08 09:33 51.34972 12.75503 14302 ft 347 kts 123°
2026-05-08 09:33 51.33698 12.78755 13845 ft 345 kts 122°
2026-05-08 09:33 51.32435 12.81982 13395 ft 342 kts 122°
2026-05-08 09:34 51.31178 12.85191 12940 ft 339 kts 122°
2026-05-08 09:34 51.29934 12.88370 12445 ft 338 kts 122°
2026-05-08 09:34 51.28697 12.91527 11979 ft 336 kts 122°
2026-05-08 09:34 51.27468 12.94670 11521 ft 334 kts 122°
2026-05-08 09:35 51.26240 12.97807 11069 ft 332 kts 122°
2026-05-08 09:35 51.25022 13.00919 10632 ft 330 kts 122°
2026-05-08 09:35 51.23813 13.04002 10192 ft 327 kts 122°
2026-05-08 09:35 51.22631 13.07009 9784 ft 312 kts 122°
2026-05-08 09:36 51.21508 13.09864 9429 ft 294 kts 122°
2026-05-08 09:36 51.20443 13.12562 8903 ft 285 kts 122°
2026-05-08 09:36 51.19396 13.15214 8251 ft 284 kts 122°
2026-05-08 09:36 51.18352 13.17855 7873 ft 280 kts 122°
2026-05-08 09:37 51.17318 13.20470 7544 ft 276 kts 122°
2026-05-08 09:37 51.16298 13.23043 7167 ft 274 kts 122°
2026-05-08 09:37 51.15278 13.25605 6792 ft 273 kts 122°
2026-05-08 09:37 51.14262 13.28152 6406 ft 271 kts 123°
2026-05-08 09:38 51.13253 13.30680 6054 ft 269 kts 122°
2026-05-08 09:38 51.12256 13.33180 5688 ft 266 kts 122°
2026-05-08 09:38 51.11281 13.35618 5514 ft 258 kts 122°
2026-05-08 09:38 51.10334 13.37986 5346 ft 249 kts 122°
2026-05-08 09:39 51.09420 13.40277 5173 ft 240 kts 122°
2026-05-08 09:39 51.08540 13.42484 5002 ft 233 kts 122°
2026-05-08 09:39 51.07689 13.44613 4841 ft 225 kts 122°
2026-05-08 09:39 51.06864 13.46674 4688 ft 218 kts 121°
2026-05-08 09:40 51.06064 13.48669 4537 ft 210 kts 121°
2026-05-08 09:40 51.05293 13.50594 4381 ft 203 kts 121°
2026-05-08 09:40 51.04560 13.52421 4333 ft 187 kts 121°
2026-05-08 09:40 51.03861 13.54163 4031 ft 190 kts 121°
2026-05-08 09:41 51.03113 13.55858 3973 ft 187 kts 131°
2026-05-08 09:41 51.02078 13.57112 3980 ft 188 kts 143°
2026-05-08 09:41 51.01310 13.58730 3963 ft 186 kts 105°
2026-05-08 09:41 51.01384 13.60719 3960 ft 179 kts 65°
2026-05-08 09:42 51.02166 13.62090 3946 ft 159 kts 35°
2026-05-08 09:42 51.03038 13.62999 3977 ft 146 kts 33°
2026-05-08 09:42 51.03873 13.63909 3974 ft 145 kts 35°
2026-05-08 09:42 51.04693 13.64854 3869 ft 145 kts 37°
2026-05-08 09:43 51.05488 13.65851 3741 ft 145 kts 40°
2026-05-08 09:43 51.06258 13.66882 3590 ft 145 kts 40°
2026-05-08 09:43 51.07041 13.67888 3245 ft 145 kts 39°
2026-05-08 09:43 51.07758 13.68993 2889 ft 144 kts 46°
2026-05-08 09:44 51.08489 13.70057 2506 ft 142 kts 41°
2026-05-08 09:44 51.09228 13.71088 2064 ft 143 kts 40°
2026-05-08 09:44 51.09989 13.72095 1611 ft 145 kts 38°
2026-05-08 09:44 51.10749 13.73126 1228 ft 141 kts 39°
2026-05-08 09:45 51.11492 13.74118 1036 ft 139 kts 40°
2026-05-08 09:45 51.12226 13.75131 875 ft 139 kts 39°
2026-05-08 09:45 51.12951 13.76139 769 ft 132 kts 40°
2026-05-08 09:45 51.13556 13.76968 763 ft 91 kts 41°
2026-05-08 09:46 51.13871 13.77401 763 ft 23 kts 40°
2026-05-08 09:46 51.13879 13.77550 763 ft 8 kts 127°
2026-05-08 09:46 51.13861 13.77587 763 ft 3 kts 129°
2026-05-08 09:46 51.13839 13.77628 763 ft 6 kts 130°
2026-05-08 09:47 51.13800 13.77695 763 ft 11 kts 141°
2026-05-08 09:47 51.13722 13.77676 763 ft 13 kts 219°
2026-05-08 09:47 51.13649 13.77577 763 ft 14 kts 221°
2026-05-08 09:47 51.13574 13.77471 763 ft 14 kts 222°
2026-05-08 09:48 51.13493 13.77359 763 ft 15 kts 220°
2026-05-08 09:48 51.13410 13.77246 763 ft 16 kts 221°
2026-05-08 09:48 51.13324 13.77128 763 ft 16 kts 221°
2026-05-08 09:48 51.13235 13.77005 763 ft 17 kts 221°
2026-05-08 09:49 51.13145 13.76881 763 ft 17 kts 221°
2026-05-08 09:49 51.13052 13.76754 763 ft 17 kts 221°
2026-05-08 09:49 51.12959 13.76624 763 ft 17 kts 221°
2026-05-08 09:49 51.12864 13.76494 763 ft 15 kts 220°
2026-05-08 09:50 51.12775 13.76488 763 ft 14 kts 136°
2026-05-08 09:50 51.12715 13.76551 763 ft 9 kts 209°
2026-05-08 09:50 51.12666 13.76492 763 ft 4 kts 221°
2026-05-08 09:50 51.12655 13.76478 763 ft 0 kts 220°